DEICE BGSS-CYXP

Flight info

Callsign DEICE
Flight time 1h 57m
Altitude 6000
Route YXP
Aircraft PA24/L-SDGRY/S

Departure

Time 2026-04-18 15:45
Airport Sisimiut Airport (BGSS)

Arrival

Time 2026-04-18 17:43
Airport Pangnirtung Airport (CYXP)
Time Latitude Longitude Altitude Speed Heading
2026-04-18 15:37 66.95165 -53.72228 28 ft 0 kts 271°
2026-04-18 15:42 66.95165 -53.72230 28 ft 2 kts 271°
2026-04-18 15:43 66.95154 -53.72259 28 ft 4 kts 180°
2026-04-18 15:43 66.95121 -53.72258 28 ft 3 kts 179°
2026-04-18 15:43 66.95094 -53.72267 26 ft 0 kts 190°
2026-04-18 15:43 66.95068 -53.72192 18 ft 7 kts 102°
2026-04-18 15:44 66.95052 -53.72119 18 ft 3 kts 224°
2026-04-18 15:44 66.95057 -53.72184 18 ft 0 kts 288°
2026-04-18 15:45 66.95084 -53.72451 22 ft 52 kts 286°
2026-04-18 15:45 66.95214 -53.73789 61 ft 95 kts 282°
2026-04-18 15:45 66.95252 -53.75515 348 ft 101 kts 250°
2026-04-18 15:45 66.95006 -53.77237 653 ft 105 kts 255°
2026-04-18 15:46 66.94924 -53.79112 953 ft 107 kts 265°
2026-04-18 15:46 66.94855 -53.81003 1275 ft 107 kts 265°
2026-04-18 15:46 66.94783 -53.82887 1600 ft 107 kts 264°
2026-04-18 15:46 66.94726 -53.84789 1900 ft 108 kts 267°
2026-04-18 15:47 66.94670 -53.86695 2204 ft 108 kts 266°
2026-04-18 15:47 66.94611 -53.88623 2490 ft 109 kts 264°
2026-04-18 15:47 66.94533 -53.90555 2782 ft 110 kts 266°
2026-04-18 15:47 66.94485 -53.92479 3057 ft 111 kts 265°
2026-04-18 15:48 66.94431 -53.94449 3347 ft 111 kts 266°
2026-04-18 15:48 66.94391 -53.96418 3610 ft 112 kts 267°
2026-04-18 15:48 66.94359 -53.98410 3881 ft 112 kts 268°
2026-04-18 15:48 66.94336 -54.00391 4162 ft 112 kts 269°
2026-04-18 15:49 66.94310 -54.02377 4438 ft 112 kts 267°
2026-04-18 15:49 66.94278 -54.04372 4705 ft 113 kts 266°
2026-04-18 15:49 66.94210 -54.06348 4963 ft 113 kts 264°
2026-04-18 15:49 66.94133 -54.08355 5144 ft 114 kts 264°
2026-04-18 15:50 66.94066 -54.10351 5354 ft 112 kts 267°
2026-04-18 15:50 66.94035 -54.12360 5513 ft 113 kts 268°
2026-04-18 15:50 66.94023 -54.14367 5708 ft 114 kts 270°
2026-04-18 15:50 66.93994 -54.16371 5914 ft 115 kts 266°
2026-04-18 15:51 66.93926 -54.18440 6017 ft 122 kts 265°
2026-04-18 15:51 66.93852 -54.20700 6025 ft 133 kts 265°
2026-04-18 15:51 66.93771 -54.23106 6036 ft 140 kts 264°
2026-04-18 15:51 66.93665 -54.25584 6095 ft 140 kts 263°
2026-04-18 15:52 66.93548 -54.28063 6100 ft 144 kts 263°
2026-04-18 15:52 66.93425 -54.30618 6122 ft 146 kts 263°
2026-04-18 15:52 66.93308 -54.33232 6097 ft 149 kts 264°
2026-04-18 15:52 66.93204 -54.35842 6150 ft 147 kts 265°
2026-04-18 15:53 66.93116 -54.38428 6190 ft 147 kts 265°
2026-04-18 15:53 66.93036 -54.41077 6141 ft 152 kts 266°
2026-04-18 15:53 66.92960 -54.43781 6104 ft 154 kts 266°
2026-04-18 15:53 66.92887 -54.46509 6070 ft 154 kts 266°
2026-04-18 15:54 66.92811 -54.49262 6014 ft 157 kts 266°
2026-04-18 15:54 66.92731 -54.52023 6007 ft 155 kts 266°
2026-04-18 15:54 66.92648 -54.54766 6000 ft 154 kts 265°
2026-04-18 15:54 66.92562 -54.57489 6002 ft 153 kts 265°
2026-04-18 15:55 66.92471 -54.60161 6004 ft 153 kts 265°
2026-04-18 15:55 66.92375 -54.62857 6004 ft 153 kts 265°
2026-04-18 15:55 66.92275 -54.65551 6006 ft 152 kts 264°
2026-04-18 15:55 66.92176 -54.68235 6006 ft 152 kts 265°
2026-04-18 15:56 66.92078 -54.70916 6005 ft 152 kts 265°
2026-04-18 15:56 66.91983 -54.73602 6005 ft 152 kts 265°
2026-04-18 15:56 66.91891 -54.76291 6007 ft 152 kts 265°
2026-04-18 15:56 66.91802 -54.78975 6006 ft 152 kts 265°
2026-04-18 15:57 66.91713 -54.81667 6007 ft 152 kts 265°
2026-04-18 15:57 66.91621 -54.84356 6007 ft 153 kts 265°
2026-04-18 15:57 66.91529 -54.87041 6005 ft 151 kts 265°
2026-04-18 15:57 66.91436 -54.89676 6004 ft 151 kts 265°
2026-04-18 15:58 66.91343 -54.92344 6006 ft 151 kts 265°
2026-04-18 15:58 66.91248 -54.95020 6006 ft 151 kts 265°
2026-04-18 15:58 66.91152 -54.97693 6006 ft 151 kts 265°
2026-04-18 15:58 66.91056 -55.00362 6007 ft 151 kts 265°
2026-04-18 15:59 66.90960 -55.03034 6006 ft 151 kts 265°
2026-04-18 15:59 66.90863 -55.05713 6007 ft 152 kts 265°
2026-04-18 15:59 66.90764 -55.08395 6007 ft 152 kts 265°
2026-04-18 15:59 66.90664 -55.11052 6007 ft 152 kts 264°
2026-04-18 16:00 66.90561 -55.13730 6007 ft 152 kts 265°
2026-04-18 16:00 66.90461 -55.16409 6006 ft 152 kts 265°
2026-04-18 16:00 66.90361 -55.19084 6006 ft 152 kts 265°
2026-04-18 16:00 66.90262 -55.21755 6006 ft 151 kts 264°
2026-04-18 16:01 66.90162 -55.24426 6006 ft 152 kts 265°
2026-04-18 16:01 66.90065 -55.27099 6006 ft 151 kts 265°
2026-04-18 16:01 66.89967 -55.29769 6007 ft 151 kts 265°
2026-04-18 16:01 66.89868 -55.32445 6004 ft 152 kts 264°
2026-04-18 16:02 66.89766 -55.35114 6005 ft 151 kts 264°
2026-04-18 16:02 66.89663 -55.37780 6006 ft 151 kts 264°
2026-04-18 16:02 66.89559 -55.40448 6006 ft 151 kts 264°
2026-04-18 16:02 66.89454 -55.43109 6006 ft 151 kts 264°
2026-04-18 16:03 66.89348 -55.45778 6006 ft 151 kts 264°
2026-04-18 16:03 66.89242 -55.48441 6006 ft 151 kts 264°
2026-04-18 16:03 66.89139 -55.51077 6007 ft 152 kts 264°
2026-04-18 16:03 66.89035 -55.53751 6007 ft 151 kts 264°
2026-04-18 16:04 66.88929 -55.56416 6006 ft 151 kts 264°
2026-04-18 16:04 66.88823 -55.59088 6006 ft 151 kts 264°
2026-04-18 16:04 66.88718 -55.61750 6007 ft 151 kts 264°
2026-04-18 16:04 66.88612 -55.64419 6006 ft 152 kts 264°
2026-04-18 16:05 66.88505 -55.67095 6007 ft 152 kts 264°
2026-04-18 16:05 66.88393 -55.69774 6007 ft 152 kts 264°
2026-04-18 16:05 66.88284 -55.72449 6003 ft 152 kts 264°
2026-04-18 16:05 66.88175 -55.75122 6006 ft 152 kts 264°
2026-04-18 16:06 66.88067 -55.77793 6004 ft 152 kts 264°
2026-04-18 16:06 66.87959 -55.80468 6007 ft 152 kts 264°
2026-04-18 16:06 66.87850 -55.83103 6006 ft 152 kts 264°
2026-04-18 16:06 66.87741 -55.85777 6007 ft 152 kts 264°
2026-04-18 16:07 66.87631 -55.88444 6007 ft 152 kts 264°
2026-04-18 16:07 66.87518 -55.91116 6006 ft 152 kts 264°
2026-04-18 16:07 66.87405 -55.93793 6005 ft 152 kts 264°
2026-04-18 16:07 66.87291 -55.96462 6003 ft 152 kts 264°
2026-04-18 16:08 66.87177 -55.99132 6006 ft 152 kts 264°
2026-04-18 16:08 66.87064 -56.01801 6006 ft 152 kts 264°
2026-04-18 16:08 66.86950 -56.04469 6006 ft 151 kts 264°
2026-04-18 16:08 66.86838 -56.07127 6006 ft 151 kts 264°
2026-04-18 16:09 66.86723 -56.09789 6006 ft 151 kts 264°
2026-04-18 16:09 66.86608 -56.12451 6006 ft 151 kts 264°
2026-04-18 16:09 66.86492 -56.15081 6007 ft 152 kts 264°
2026-04-18 16:09 66.86376 -56.17754 6007 ft 152 kts 264°
2026-04-18 16:10 66.86262 -56.20417 6006 ft 152 kts 264°
2026-04-18 16:10 66.86145 -56.23085 6006 ft 152 kts 264°
2026-04-18 16:10 66.86028 -56.25743 6006 ft 151 kts 264°
2026-04-18 16:10 66.85909 -56.28401 6006 ft 151 kts 263°
2026-04-18 16:11 66.85790 -56.31055 6006 ft 151 kts 263°
2026-04-18 16:11 66.85670 -56.33711 6007 ft 151 kts 263°
2026-04-18 16:11 66.85550 -56.36371 6006 ft 151 kts 264°
2026-04-18 16:11 66.85431 -56.39031 6006 ft 151 kts 263°
2026-04-18 16:12 66.85310 -56.41688 6007 ft 151 kts 264°
2026-04-18 16:12 66.85192 -56.44351 6007 ft 151 kts 264°
2026-04-18 16:12 66.85072 -56.47012 6005 ft 152 kts 263°
2026-04-18 16:12 66.84951 -56.49682 6007 ft 152 kts 263°
2026-04-18 16:13 66.84831 -56.52321 6007 ft 152 kts 263°
2026-04-18 16:13 66.84708 -56.54993 6006 ft 152 kts 263°
2026-04-18 16:13 66.84584 -56.57659 6004 ft 152 kts 263°
2026-04-18 16:13 66.84460 -56.60317 6006 ft 152 kts 263°
2026-04-18 16:14 66.84337 -56.62982 6006 ft 152 kts 263°
2026-04-18 16:14 66.84215 -56.65641 6006 ft 152 kts 263°
2026-04-18 16:14 66.84092 -56.68295 6007 ft 151 kts 263°
2026-04-18 16:14 66.83965 -56.70958 6004 ft 151 kts 263°
2026-04-18 16:15 66.83715 -56.76266 6007 ft 152 kts 263°
2026-04-18 16:15 66.83587 -56.78930 6007 ft 152 kts 263°
2026-04-18 16:15 66.83461 -56.81591 6004 ft 152 kts 263°
2026-04-18 16:16 66.83335 -56.84256 6006 ft 152 kts 263°
2026-04-18 16:16 66.83208 -56.86876 6007 ft 152 kts 263°
2026-04-18 16:16 66.83080 -56.89530 6006 ft 151 kts 263°
2026-04-18 16:16 66.82951 -56.92189 6006 ft 151 kts 263°
2026-04-18 16:17 66.82822 -56.94847 6007 ft 151 kts 263°
2026-04-18 16:17 66.82693 -56.97507 6006 ft 152 kts 263°
2026-04-18 16:17 66.82562 -57.00162 6007 ft 152 kts 263°
2026-04-18 16:17 66.82429 -57.02820 6007 ft 152 kts 263°
2026-04-18 16:18 66.82298 -57.05480 6007 ft 152 kts 263°
2026-04-18 16:18 66.82169 -57.08144 6007 ft 152 kts 263°
2026-04-18 16:18 66.82038 -57.10802 6007 ft 152 kts 263°
2026-04-18 16:18 66.81909 -57.13462 6006 ft 152 kts 263°
2026-04-18 16:19 66.81780 -57.16085 6006 ft 152 kts 263°
2026-04-18 16:19 66.81646 -57.18737 6005 ft 152 kts 263°
2026-04-18 16:19 66.81510 -57.21396 6006 ft 152 kts 263°
2026-04-18 16:19 66.81373 -57.24050 6005 ft 152 kts 263°
2026-04-18 16:20 66.81238 -57.26706 6006 ft 152 kts 263°
2026-04-18 16:20 66.81104 -57.29362 6006 ft 152 kts 263°
2026-04-18 16:20 66.80969 -57.32015 6005 ft 151 kts 263°
2026-04-18 16:20 66.80832 -57.34668 6007 ft 152 kts 263°
2026-04-18 16:21 66.80697 -57.37321 6005 ft 152 kts 263°
2026-04-18 16:21 66.80560 -57.39981 6007 ft 152 kts 263°
2026-04-18 16:21 66.80425 -57.42607 6006 ft 152 kts 263°
2026-04-18 16:21 66.80285 -57.45303 6006 ft 152 kts 263°
2026-04-18 16:22 66.80148 -57.47929 6007 ft 152 kts 263°
2026-04-18 16:22 66.80010 -57.50591 6006 ft 152 kts 263°
2026-04-18 16:22 66.79872 -57.53250 6006 ft 152 kts 263°
2026-04-18 16:22 66.79734 -57.55908 6006 ft 152 kts 263°
2026-04-18 16:23 66.79642 -57.57664 6006 ft 152 kts 263°
2026-04-18 16:23 66.79502 -57.60314 6004 ft 152 kts 262°
2026-04-18 16:23 66.79218 -57.65623 6007 ft 152 kts 262°
2026-04-18 16:24 66.79077 -57.68273 6006 ft 152 kts 262°
2026-04-18 16:24 66.78934 -57.70926 6007 ft 152 kts 262°
2026-04-18 16:24 66.78790 -57.73572 6006 ft 152 kts 262°
2026-04-18 16:24 66.78647 -57.76222 6006 ft 152 kts 262°
2026-04-18 16:25 66.78505 -57.78875 6006 ft 152 kts 262°
2026-04-18 16:25 66.78362 -57.81529 6005 ft 152 kts 262°
2026-04-18 16:25 66.78220 -57.84178 6005 ft 152 kts 262°
2026-04-18 16:25 66.78076 -57.86836 6004 ft 152 kts 262°
2026-04-18 16:26 66.77930 -57.89484 6005 ft 152 kts 262°
2026-04-18 16:26 66.77785 -57.92138 6005 ft 152 kts 262°
2026-04-18 16:26 66.77637 -57.94787 6006 ft 152 kts 262°
2026-04-18 16:26 66.77490 -57.97399 6006 ft 152 kts 262°
2026-04-18 16:27 66.77344 -58.00041 6007 ft 152 kts 262°
2026-04-18 16:27 66.77198 -58.02689 6004 ft 152 kts 262°
2026-04-18 16:27 66.77051 -58.05339 6007 ft 152 kts 262°
2026-04-18 16:27 66.76903 -58.07987 6007 ft 152 kts 262°
2026-04-18 16:28 66.76756 -58.10642 6007 ft 152 kts 262°
2026-04-18 16:28 66.76608 -58.13294 6005 ft 152 kts 262°
2026-04-18 16:28 66.76458 -58.15958 6007 ft 152 kts 262°
2026-04-18 16:28 66.76308 -58.18612 6007 ft 152 kts 262°
2026-04-18 16:29 66.76157 -58.21261 6006 ft 152 kts 262°
2026-04-18 16:29 66.76005 -58.23922 6006 ft 152 kts 262°
2026-04-18 16:29 66.75851 -58.26572 6006 ft 152 kts 262°
2026-04-18 16:29 66.75699 -58.29222 6005 ft 152 kts 262°
2026-04-18 16:30 66.75546 -58.31870 6007 ft 152 kts 262°
2026-04-18 16:30 66.75393 -58.34520 6007 ft 152 kts 262°
2026-04-18 16:30 66.75240 -58.37165 6005 ft 152 kts 262°
2026-04-18 16:30 66.75085 -58.39808 6007 ft 152 kts 262°
2026-04-18 16:31 66.74931 -58.42457 6007 ft 152 kts 262°
2026-04-18 16:31 66.74775 -58.45103 6007 ft 152 kts 262°
2026-04-18 16:31 66.74623 -58.47719 6006 ft 152 kts 262°
2026-04-18 16:31 66.74470 -58.50366 6006 ft 152 kts 262°
2026-04-18 16:32 66.74317 -58.53014 6005 ft 152 kts 262°
2026-04-18 16:32 66.74163 -58.55664 6007 ft 152 kts 262°
2026-04-18 16:32 66.74007 -58.58303 6006 ft 152 kts 262°
2026-04-18 16:32 66.73850 -58.60951 6007 ft 152 kts 262°
2026-04-18 16:33 66.73692 -58.63599 6007 ft 152 kts 262°
2026-04-18 16:33 66.73530 -58.66250 6007 ft 152 kts 261°
2026-04-18 16:33 66.73367 -58.68891 6005 ft 152 kts 261°
2026-04-18 16:33 66.73205 -58.71540 6006 ft 152 kts 262°
2026-04-18 16:34 66.73046 -58.74185 6007 ft 152 kts 262°
2026-04-18 16:34 66.72888 -58.76825 6006 ft 152 kts 261°
2026-04-18 16:34 66.72728 -58.79465 6007 ft 152 kts 262°
2026-04-18 16:34 66.72569 -58.82107 6007 ft 152 kts 262°
2026-04-18 16:35 66.72411 -58.84714 6006 ft 152 kts 261°
2026-04-18 16:35 66.72248 -58.87361 6006 ft 152 kts 262°
2026-04-18 16:35 66.72088 -58.90006 6007 ft 152 kts 262°
2026-04-18 16:35 66.71928 -58.92655 6004 ft 152 kts 261°
2026-04-18 16:36 66.71765 -58.95305 6006 ft 152 kts 261°
2026-04-18 16:36 66.71602 -58.97940 6007 ft 152 kts 261°
2026-04-18 16:36 66.71438 -59.00577 6005 ft 152 kts 261°
2026-04-18 16:36 66.71272 -59.03225 6007 ft 152 kts 261°
2026-04-18 16:37 66.71103 -59.05878 6008 ft 153 kts 261°
2026-04-18 16:37 66.70936 -59.08503 6007 ft 153 kts 261°
2026-04-18 16:37 66.70768 -59.11159 6006 ft 153 kts 261°
2026-04-18 16:37 66.70601 -59.13802 6004 ft 152 kts 261°
2026-04-18 16:38 66.70436 -59.16446 6006 ft 152 kts 261°
2026-04-18 16:38 66.70271 -59.19083 6005 ft 152 kts 261°
2026-04-18 16:38 66.70107 -59.21720 6007 ft 152 kts 261°
2026-04-18 16:38 66.69940 -59.24362 6005 ft 152 kts 261°
2026-04-18 16:39 66.69770 -59.27000 6007 ft 152 kts 261°
2026-04-18 16:39 66.69600 -59.29638 6007 ft 152 kts 261°
2026-04-18 16:39 66.69430 -59.32277 6007 ft 152 kts 261°
2026-04-18 16:39 66.69262 -59.34916 6007 ft 152 kts 261°
2026-04-18 16:40 66.69093 -59.37551 6006 ft 152 kts 261°
2026-04-18 16:40 66.68922 -59.40189 6007 ft 152 kts 261°
2026-04-18 16:40 66.68752 -59.42823 6007 ft 152 kts 261°
2026-04-18 16:40 66.68581 -59.45426 6006 ft 152 kts 261°
2026-04-18 16:41 66.68234 -59.50698 6007 ft 152 kts 261°
2026-04-18 16:41 66.68062 -59.53331 6006 ft 152 kts 261°
2026-04-18 16:41 66.67891 -59.55965 6006 ft 152 kts 261°
2026-04-18 16:42 66.67718 -59.58603 6007 ft 152 kts 261°
2026-04-18 16:42 66.67542 -59.61243 6007 ft 152 kts 261°
2026-04-18 16:42 66.67367 -59.63878 6007 ft 153 kts 261°
2026-04-18 16:42 66.67190 -59.66523 6006 ft 153 kts 261°
2026-04-18 16:43 66.67014 -59.69164 6007 ft 152 kts 261°
2026-04-18 16:43 66.66839 -59.71805 6006 ft 152 kts 261°
2026-04-18 16:43 66.66663 -59.74439 6006 ft 152 kts 261°
2026-04-18 16:43 66.66487 -59.77071 6004 ft 152 kts 261°
2026-04-18 16:44 66.66309 -59.79707 6007 ft 152 kts 261°
2026-04-18 16:44 66.66130 -59.82342 6007 ft 153 kts 261°
2026-04-18 16:44 66.65950 -59.84979 6007 ft 153 kts 261°
2026-04-18 16:44 66.65772 -59.87587 6006 ft 153 kts 261°
2026-04-18 16:45 66.65593 -59.90225 6005 ft 152 kts 261°
2026-04-18 16:45 66.65413 -59.92868 6006 ft 152 kts 261°
2026-04-18 16:45 66.65233 -59.95497 6006 ft 152 kts 260°
2026-04-18 16:45 66.65052 -59.98136 6007 ft 153 kts 261°
2026-04-18 16:46 66.64873 -60.00782 6006 ft 153 kts 261°
2026-04-18 16:46 66.64692 -60.03418 6006 ft 153 kts 260°
2026-04-18 16:46 66.64512 -60.06019 6004 ft 153 kts 260°
2026-04-18 16:46 66.64329 -60.08657 6006 ft 153 kts 260°
2026-04-18 16:47 66.64147 -60.11291 6006 ft 153 kts 260°
2026-04-18 16:47 66.63963 -60.13924 6007 ft 152 kts 260°
2026-04-18 16:47 66.63777 -60.16557 6005 ft 152 kts 260°
2026-04-18 16:47 66.63590 -60.19188 6005 ft 152 kts 260°
2026-04-18 16:48 66.63405 -60.21821 6005 ft 153 kts 260°
2026-04-18 16:48 66.63220 -60.24454 6006 ft 152 kts 260°
2026-04-18 16:48 66.63039 -60.27049 6006 ft 152 kts 260°
2026-04-18 16:48 66.62855 -60.29681 6006 ft 152 kts 260°
2026-04-18 16:49 66.62669 -60.32311 6005 ft 152 kts 260°
2026-04-18 16:49 66.62484 -60.34940 6005 ft 152 kts 260°
2026-04-18 16:49 66.62295 -60.37570 6005 ft 152 kts 260°
2026-04-18 16:49 66.62107 -60.40194 6005 ft 152 kts 260°
2026-04-18 16:50 66.61919 -60.42827 6007 ft 153 kts 260°
2026-04-18 16:50 66.61729 -60.45453 6006 ft 152 kts 260°
2026-04-18 16:50 66.61540 -60.48081 6006 ft 152 kts 260°
2026-04-18 16:50 66.61351 -60.50705 6006 ft 152 kts 260°
2026-04-18 16:51 66.61160 -60.53327 6007 ft 152 kts 260°
2026-04-18 16:51 66.60972 -60.55916 6005 ft 152 kts 260°
2026-04-18 16:51 66.60782 -60.58537 6005 ft 152 kts 260°
2026-04-18 16:51 66.60592 -60.61161 6006 ft 152 kts 260°
2026-04-18 16:52 66.60402 -60.63783 6006 ft 152 kts 260°
2026-04-18 16:52 66.60209 -60.66404 6005 ft 152 kts 260°
2026-04-18 16:52 66.60017 -60.69024 6006 ft 152 kts 260°
2026-04-18 16:52 66.59826 -60.71645 6007 ft 152 kts 260°
2026-04-18 16:53 66.59632 -60.74269 6004 ft 152 kts 259°
2026-04-18 16:53 66.59437 -60.76888 6006 ft 152 kts 259°
2026-04-18 16:53 66.59242 -60.79517 6005 ft 152 kts 259°
2026-04-18 16:53 66.59046 -60.82136 6006 ft 152 kts 259°
2026-04-18 16:54 66.58851 -60.84752 6007 ft 152 kts 259°
2026-04-18 16:54 66.58656 -60.87371 6006 ft 152 kts 259°
2026-04-18 16:54 66.58460 -60.89983 6007 ft 152 kts 259°
2026-04-18 16:54 66.58263 -60.92600 6005 ft 152 kts 259°
2026-04-18 16:55 66.58068 -60.95214 6007 ft 152 kts 259°
2026-04-18 16:55 66.57875 -60.97795 6005 ft 152 kts 259°
2026-04-18 16:55 66.57678 -61.00411 6007 ft 152 kts 259°
2026-04-18 16:55 66.57480 -61.03034 6007 ft 152 kts 259°
2026-04-18 16:56 66.57281 -61.05651 6007 ft 152 kts 259°
2026-04-18 16:56 66.57082 -61.08277 6005 ft 152 kts 259°
2026-04-18 16:56 66.56883 -61.10894 6005 ft 152 kts 259°
2026-04-18 16:56 66.56680 -61.13511 6005 ft 152 kts 259°
2026-04-18 16:57 66.56479 -61.16098 6006 ft 152 kts 259°
2026-04-18 16:57 66.56277 -61.18707 6005 ft 152 kts 259°
2026-04-18 16:57 66.56078 -61.21318 6006 ft 152 kts 259°
2026-04-18 16:57 66.55878 -61.23932 6007 ft 152 kts 259°
2026-04-18 16:58 66.55678 -61.26549 6007 ft 152 kts 259°
2026-04-18 16:58 66.55477 -61.29160 6006 ft 152 kts 259°
2026-04-18 16:58 66.55275 -61.31773 6007 ft 152 kts 259°
2026-04-18 16:58 66.55072 -61.34383 6007 ft 152 kts 259°
2026-04-18 16:59 66.54867 -61.36996 6005 ft 152 kts 259°
2026-04-18 16:59 66.54662 -61.39608 6007 ft 152 kts 259°
2026-04-18 16:59 66.54456 -61.42220 6007 ft 152 kts 259°
2026-04-18 16:59 66.54251 -61.44828 6006 ft 152 kts 259°
2026-04-18 17:00 66.54044 -61.47427 6004 ft 152 kts 259°
2026-04-18 17:00 66.53837 -61.50033 6007 ft 152 kts 259°
2026-04-18 17:00 66.53634 -61.52618 6007 ft 152 kts 259°
2026-04-18 17:00 66.53430 -61.55231 6007 ft 153 kts 259°
2026-04-18 17:01 66.53224 -61.57845 6006 ft 153 kts 259°
2026-04-18 17:01 66.53016 -61.60463 6007 ft 153 kts 259°
2026-04-18 17:01 66.52807 -61.63083 6005 ft 153 kts 259°
2026-04-18 17:01 66.52597 -61.65697 6006 ft 153 kts 259°
2026-04-18 17:02 66.52386 -61.68312 6006 ft 152 kts 259°
2026-04-18 17:02 66.52177 -61.70916 6005 ft 152 kts 259°
2026-04-18 17:02 66.51970 -61.73488 6006 ft 152 kts 259°
2026-04-18 17:02 66.51760 -61.76087 6007 ft 152 kts 259°
2026-04-18 17:03 66.51549 -61.78687 6007 ft 152 kts 259°
2026-04-18 17:03 66.51337 -61.81295 6005 ft 153 kts 259°
2026-04-18 17:03 66.51126 -61.83904 6007 ft 153 kts 259°
2026-04-18 17:03 66.50913 -61.86510 6007 ft 153 kts 259°
2026-04-18 17:04 66.50700 -61.89113 6006 ft 152 kts 259°
2026-04-18 17:04 66.50487 -61.91715 6006 ft 153 kts 259°
2026-04-18 17:04 66.50273 -61.94320 6005 ft 152 kts 258°
2026-04-18 17:04 66.50058 -61.96921 6005 ft 152 kts 259°
2026-04-18 17:05 66.49845 -61.99525 6006 ft 152 kts 259°
2026-04-18 17:05 66.49632 -62.02124 6006 ft 151 kts 258°
2026-04-18 17:05 66.49422 -62.04674 6004 ft 152 kts 258°
2026-04-18 17:05 66.49207 -62.07263 6005 ft 152 kts 258°
2026-04-18 17:06 66.48991 -62.09860 6006 ft 153 kts 258°
2026-04-18 17:06 66.48772 -62.12472 6007 ft 154 kts 258°
2026-04-18 17:06 66.48558 -62.15079 6007 ft 152 kts 259°
2026-04-18 17:06 66.48349 -62.17693 6009 ft 153 kts 259°
2026-04-18 17:07 66.48128 -62.20311 6005 ft 154 kts 258°
2026-04-18 17:07 66.47902 -62.22935 6005 ft 154 kts 258°
2026-04-18 17:07 66.47677 -62.25552 6008 ft 154 kts 258°
2026-04-18 17:07 66.47455 -62.28175 6010 ft 154 kts 258°
2026-04-18 17:08 66.47233 -62.30787 6003 ft 152 kts 258°
2026-04-18 17:08 66.47017 -62.33370 6002 ft 151 kts 258°
2026-04-18 17:08 66.46802 -62.35953 6004 ft 152 kts 259°
2026-04-18 17:08 66.46595 -62.38554 6005 ft 153 kts 259°
2026-04-18 17:09 66.46382 -62.41156 6007 ft 153 kts 258°
2026-04-18 17:09 66.46153 -62.43760 6007 ft 153 kts 258°
2026-04-18 17:09 66.46002 -62.45472 6008 ft 152 kts 258°
2026-04-18 17:09 66.45690 -62.48886 6006 ft 152 kts 257°
2026-04-18 17:10 66.45464 -62.51478 6007 ft 153 kts 258°
2026-04-18 17:10 66.45313 -62.53235 6007 ft 153 kts 258°
2026-04-18 17:10 66.45089 -62.55825 6005 ft 152 kts 258°
2026-04-18 17:10 66.44858 -62.58416 6008 ft 153 kts 258°
2026-04-18 17:11 66.44633 -62.60983 6011 ft 153 kts 258°
2026-04-18 17:11 66.44410 -62.63589 6006 ft 153 kts 259°
2026-04-18 17:11 66.44191 -62.66183 6005 ft 152 kts 258°
2026-04-18 17:11 66.43971 -62.68756 6005 ft 152 kts 258°
2026-04-18 17:12 66.43762 -62.71353 6006 ft 152 kts 258°
2026-04-18 17:12 66.43536 -62.73946 6004 ft 152 kts 258°
2026-04-18 17:12 66.43304 -62.76531 6004 ft 153 kts 258°
2026-04-18 17:12 66.43062 -62.79117 6008 ft 153 kts 257°
2026-04-18 17:13 66.42821 -62.81697 6008 ft 152 kts 257°
2026-04-18 17:13 66.42594 -62.84243 6007 ft 152 kts 258°
2026-04-18 17:13 66.42370 -62.86835 6005 ft 152 kts 258°
2026-04-18 17:13 66.42148 -62.89428 6008 ft 153 kts 258°
2026-04-18 17:14 66.41923 -62.92023 6006 ft 153 kts 258°
2026-04-18 17:14 66.41696 -62.94615 6006 ft 153 kts 258°
2026-04-18 17:14 66.41475 -62.97220 6005 ft 153 kts 259°
2026-04-18 17:14 66.41267 -62.99819 6004 ft 152 kts 259°
2026-04-18 17:15 66.41062 -63.02403 6005 ft 152 kts 259°
2026-04-18 17:15 66.40857 -63.04988 6004 ft 152 kts 259°
2026-04-18 17:15 66.40654 -63.07586 6007 ft 152 kts 259°
2026-04-18 17:15 66.40444 -63.10175 6007 ft 153 kts 258°
2026-04-18 17:16 66.40229 -63.12771 6005 ft 152 kts 259°
2026-04-18 17:16 66.40018 -63.15352 6005 ft 151 kts 258°
2026-04-18 17:16 66.39802 -63.17897 6006 ft 152 kts 258°
2026-04-18 17:16 66.39583 -63.20479 6007 ft 152 kts 259°
2026-04-18 17:17 66.39377 -63.23068 6007 ft 153 kts 259°
2026-04-18 17:17 66.39169 -63.25679 6008 ft 153 kts 259°
2026-04-18 17:17 66.38959 -63.28283 6007 ft 153 kts 258°
2026-04-18 17:17 66.38740 -63.30879 6006 ft 153 kts 258°
2026-04-18 17:18 66.38519 -63.33475 6006 ft 153 kts 258°
2026-04-18 17:18 66.38300 -63.36066 6006 ft 152 kts 258°
2026-04-18 17:18 66.38084 -63.38611 6005 ft 152 kts 258°
2026-04-18 17:18 66.37864 -63.41222 6004 ft 152 kts 258°
2026-04-18 17:19 66.37652 -63.43763 6006 ft 152 kts 258°
2026-04-18 17:19 66.37434 -63.46344 6005 ft 153 kts 258°
2026-04-18 17:19 66.37216 -63.48930 6004 ft 152 kts 258°
2026-04-18 17:19 66.37003 -63.51516 6007 ft 153 kts 259°
2026-04-18 17:20 66.36788 -63.54110 6007 ft 152 kts 258°
2026-04-18 17:20 66.36568 -63.56695 6005 ft 153 kts 258°
2026-04-18 17:20 66.36342 -63.59280 6006 ft 153 kts 258°
2026-04-18 17:20 66.36122 -63.61865 6004 ft 152 kts 258°
2026-04-18 17:21 66.35902 -63.64464 6008 ft 154 kts 258°
2026-04-18 17:21 66.35683 -63.67066 6008 ft 153 kts 258°
2026-04-18 17:21 66.35464 -63.69663 6009 ft 153 kts 258°
2026-04-18 17:21 66.35239 -63.72254 6008 ft 153 kts 258°
2026-04-18 17:22 66.35014 -63.74847 6007 ft 153 kts 258°
2026-04-18 17:22 66.34785 -63.77441 6007 ft 153 kts 258°
2026-04-18 17:22 66.34563 -63.80006 6006 ft 153 kts 258°
2026-04-18 17:22 66.34341 -63.82598 6005 ft 153 kts 258°
2026-04-18 17:23 66.34107 -63.85193 6003 ft 154 kts 257°
2026-04-18 17:23 66.33880 -63.87797 6007 ft 153 kts 258°
2026-04-18 17:23 66.33665 -63.90400 6007 ft 153 kts 258°
2026-04-18 17:23 66.33443 -63.92989 6004 ft 153 kts 258°
2026-04-18 17:24 66.33214 -63.95569 6003 ft 152 kts 258°
2026-04-18 17:24 66.32984 -63.98150 6003 ft 153 kts 257°
2026-04-18 17:24 66.32755 -64.00731 6006 ft 153 kts 258°
2026-04-18 17:24 66.32523 -64.03309 6002 ft 153 kts 258°
2026-04-18 17:25 66.32295 -64.05853 6006 ft 153 kts 258°
2026-04-18 17:25 66.32073 -64.08424 6004 ft 151 kts 258°
2026-04-18 17:25 66.31854 -64.10991 6005 ft 152 kts 258°
2026-04-18 17:25 66.31628 -64.13575 6005 ft 153 kts 258°
2026-04-18 17:26 66.31400 -64.16157 6007 ft 153 kts 257°
2026-04-18 17:26 66.31160 -64.18741 6008 ft 154 kts 257°
2026-04-18 17:26 66.30924 -64.21329 6005 ft 153 kts 258°
2026-04-18 17:26 66.30693 -64.23903 6007 ft 153 kts 258°
2026-04-18 17:27 66.30467 -64.26462 6007 ft 153 kts 258°
2026-04-18 17:27 66.30236 -64.29044 6008 ft 153 kts 258°
2026-04-18 17:27 66.29773 -64.34228 6004 ft 153 kts 258°
2026-04-18 17:28 66.29534 -64.36813 6006 ft 154 kts 257°
2026-04-18 17:28 66.29299 -64.39404 6006 ft 153 kts 258°
2026-04-18 17:28 66.29068 -64.41984 6007 ft 153 kts 257°
2026-04-18 17:28 66.28828 -64.44559 6008 ft 153 kts 257°
2026-04-18 17:29 66.28589 -64.47142 6006 ft 153 kts 257°
2026-04-18 17:29 66.28355 -64.49721 6007 ft 153 kts 258°
2026-04-18 17:29 66.28120 -64.52306 6008 ft 153 kts 257°
2026-04-18 17:29 66.27881 -64.54893 6010 ft 154 kts 257°
2026-04-18 17:30 66.27645 -64.57494 6015 ft 154 kts 258°
2026-04-18 17:30 66.27414 -64.60051 5992 ft 148 kts 258°
2026-04-18 17:30 66.27190 -64.62526 5894 ft 148 kts 257°
2026-04-18 17:30 66.26953 -64.65038 5743 ft 150 kts 257°
2026-04-18 17:31 66.26707 -64.67606 5537 ft 155 kts 257°
2026-04-18 17:31 66.26460 -64.70182 5378 ft 155 kts 257°
2026-04-18 17:31 66.26219 -64.72784 5227 ft 155 kts 257°
2026-04-18 17:31 66.25975 -64.75386 5055 ft 155 kts 257°
2026-04-18 17:32 66.25724 -64.77984 4911 ft 153 kts 258°
2026-04-18 17:32 66.25506 -64.80519 4853 ft 148 kts 258°
2026-04-18 17:32 66.25293 -64.82968 4828 ft 143 kts 258°
2026-04-18 17:32 66.25076 -64.85356 4793 ft 141 kts 257°
2026-04-18 17:33 66.24850 -64.87731 4745 ft 142 kts 257°
2026-04-18 17:33 66.24383 -64.92462 4645 ft 142 kts 256°
2026-04-18 17:33 66.24145 -64.94843 4582 ft 142 kts 257°
2026-04-18 17:34 66.23924 -64.97216 4530 ft 140 kts 258°
2026-04-18 17:34 66.23706 -64.99529 4556 ft 136 kts 257°
2026-04-18 17:34 66.23504 -65.01799 4587 ft 135 kts 258°
2026-04-18 17:34 66.23373 -65.04104 4580 ft 135 kts 264°
2026-04-18 17:35 66.23285 -65.06401 4588 ft 134 kts 265°
2026-04-18 17:35 66.23197 -65.08713 4570 ft 135 kts 265°
2026-04-18 17:35 66.23084 -65.11024 4539 ft 135 kts 260°
2026-04-18 17:35 66.22807 -65.13292 4418 ft 142 kts 243°
2026-04-18 17:36 66.22228 -65.15290 4401 ft 141 kts 242°
2026-04-18 17:36 66.21915 -65.17564 4411 ft 137 kts 255°
2026-04-18 17:36 66.21695 -65.19848 4401 ft 137 kts 258°
2026-04-18 17:36 66.21498 -65.22191 4317 ft 141 kts 258°
2026-04-18 17:37 66.21288 -65.24541 4293 ft 139 kts 257°
2026-04-18 17:37 66.21087 -65.26857 4263 ft 139 kts 262°
2026-04-18 17:37 66.20927 -65.29250 4165 ft 141 kts 265°
2026-04-18 17:37 66.20853 -65.31620 4183 ft 135 kts 266°
2026-04-18 17:38 66.20788 -65.33976 4079 ft 139 kts 266°
2026-04-18 17:38 66.20709 -65.36355 4023 ft 138 kts 262°
2026-04-18 17:38 66.20475 -65.38661 3959 ft 140 kts 253°
2026-04-18 17:38 66.20108 -65.40889 3921 ft 139 kts 241°
2026-04-18 17:39 66.19563 -65.42863 3875 ft 141 kts 235°
2026-04-18 17:39 66.19001 -65.44824 3816 ft 137 kts 240°
2026-04-18 17:39 66.18686 -65.47064 3608 ft 141 kts 259°
2026-04-18 17:39 66.18533 -65.49479 3361 ft 146 kts 262°
2026-04-18 17:40 66.18390 -65.51952 3036 ft 144 kts 261°
2026-04-18 17:40 66.18152 -65.54355 2666 ft 146 kts 248°
2026-04-18 17:40 66.17739 -65.56655 2353 ft 143 kts 246°
2026-04-18 17:40 66.17337 -65.58868 2059 ft 140 kts 245°
2026-04-18 17:41 66.16945 -65.60867 1963 ft 112 kts 245°
2026-04-18 17:41 66.16632 -65.62479 1612 ft 101 kts 245°
2026-04-18 17:41 66.16257 -65.63980 1116 ft 104 kts 234°
2026-04-18 17:41 66.15782 -65.65225 767 ft 93 kts 219°
2026-04-18 17:42 66.15495 -65.66642 421 ft 93 kts 247°
2026-04-18 17:42 66.15200 -65.67990 324 ft 86 kts 243°
2026-04-18 17:42 66.14932 -65.69294 189 ft 82 kts 243°
2026-04-18 17:42 66.14680 -65.70453 94 ft 71 kts 242°
2026-04-18 17:43 66.14490 -65.71342 79 ft 46 kts 240°
2026-04-18 17:43 66.14376 -65.71861 82 ft 14 kts 236°
2026-04-18 17:43 66.14345 -65.71877 82 ft 0 kts 150°